Location: Barcelona
(41.3830°N, 2.1830°E)
Time: 00:23:33
(UTC+02:00)

ISS - Pass Details

Date: 19 July 2019
Orbit: 409 x 418 km, 51.6° (Epoch: 22 July)

Event Time Altitude Azimuth Distance (km) Brightness Sun altitude
Rises 00:37:19 0° 283° (WNW) 2,350 0.5 -25.0°
Reaches altitude 10° 00:39:57 10° 305° (NW) 1,487 -0.3 -25.1°
Maximum altitude 00:42:12 17° 348° (NNW) 1,147 -0.7 -25.3°
Drops below altitude 10° 00:44:26 10° 30° (NNE) 1,485 -0.5 -25.4°
Sets 00:47:05 0° 52° (NE) 2,346 0.3 -25.6°
